TimeEST,TemperatureF,Dew PointF,Humidity,Sea Level PressureIn,VisibilityMPH,Wind Direction,Wind SpeedMPH,Gust SpeedMPH,PrecipitationIn,Events,Conditions,WindDirDegrees,DateUTC
12:56 AM,9.1,-0.9,64,29.85,10.0,WSW,9.2,17.3,0.00,,Clear,250,2014-01-26 05:56:00
1:56 AM,7.2,1.0,76,29.87,10.0,SW,8.1,-,N/A,,Clear,230,2014-01-26 06:56:00
2:44 AM,6.8,1.4,79,29.78,6.0,WSW,6.9,-,0.00,Snow,Light Snow,240,2014-01-26 07:44:00
2:56 AM,6.1,2.1,84,29.89,6.0,SW,4.6,-,0.00,Snow,Light Snow,230,2014-01-26 07:56:00
3:56 AM,4.1,0.1,84,29.90,10.0,WSW,3.5,-,0.00,,Scattered Clouds,240,2014-01-26 08:56:00
4:32 AM,5.0,1.4,85,29.80,4.0,SSW,8.1,-,0.00,Snow,Light Snow,210,2014-01-26 09:32:00
4:56 AM,5.0,0.1,80,29.91,10.0,SSW,5.8,-,0.00,,Partly Cloudy,210,2014-01-26 09:56:00
5:56 AM,3.0,-0.9,84,29.89,10.0,SSW,6.9,-,N/A,,Clear,200,2014-01-26 10:56:00
6:56 AM,3.0,-1.8,80,29.91,10.0,SSW,5.8,-,N/A,,Clear,200,2014-01-26 11:56:00
7:56 AM,4.1,-1.8,76,29.88,10.0,South,6.9,-,N/A,,Clear,190,2014-01-26 12:56:00
8:56 AM,6.1,-1.8,70,29.87,10.0,SSW,4.6,-,N/A,,Clear,200,2014-01-26 13:56:00
9:56 AM,8.1,-0.9,67,29.86,10.0,Variable,3.5,-,N/A,,Partly Cloudy,0,2014-01-26 14:56:00
10:07 AM,8.6,-0.4,67,29.75,1.8,Variable,3.5,-,0.00,Snow,Light Snow,0,2014-01-26 15:07:00
10:11 AM,8.6,-0.4,67,29.75,1.0,Variable,4.6,-,0.00,Snow,Light Snow,0,2014-01-26 15:11:00
10:14 AM,6.8,1.4,79,29.75,1.0,South,4.6,-,0.00,Snow,Light Snow,180,2014-01-26 15:14:00
10:20 AM,8.6,1.4,73,29.74,0.8,Variable,4.6,-,0.00,Snow,Light Snow,0,2014-01-26 15:20:00
10:31 AM,8.6,1.4,73,29.74,1.0,Variable,4.6,-,0.00,Snow,Light Snow,0,2014-01-26 15:31:00
10:49 AM,8.6,3.2,79,29.72,0.8,South,4.6,-,0.00,Snow,Light Snow,180,2014-01-26 15:49:00
10:56 AM,8.1,3.0,80,29.83,0.8,Variable,6.9,-,0.00,Snow,Light Snow,0,2014-01-26 15:56:00
11:32 AM,8.6,3.2,79,29.70,1.0,Variable,6.9,-,0.00,Snow,Light Snow,0,2014-01-26 16:32:00
11:38 AM,8.6,3.2,79,29.70,1.2,Variable,5.8,-,0.00,Snow,Light Snow,0,2014-01-26 16:38:00
11:43 AM,8.6,5.0,85,29.70,1.0,South,5.8,-,0.00,Snow,Light Snow,180,2014-01-26 16:43:00
11:49 AM,10.4,5.0,79,29.70,0.8,South,6.9,-,0.00,Snow,Light Snow,190,2014-01-26 16:49:00
11:56 AM,10.0,5.0,80,29.80,0.5,South,6.9,-,0.00,Snow,Snow,170,2014-01-26 16:56:00
12:19 PM,10.4,6.8,85,29.68,1.0,Variable,5.8,-,0.00,Snow,Light Snow,0,2014-01-26 17:19:00
12:22 PM,10.4,6.8,85,29.67,1.2,South,6.9,-,0.00,Snow,Light Snow,180,2014-01-26 17:22:00
12:29 PM,10.4,6.8,85,29.67,2.0,Variable,6.9,-,0.00,Snow,Light Snow,0,2014-01-26 17:29:00
12:56 PM,12.2,6.8,79,29.65,1.2,Variable,5.8,-,N/A,Snow,Light Snow,0,2014-01-26 17:56:00
1:25 PM,12.2,8.6,85,29.63,1.8,South,8.1,-,0.00,Snow,Light Snow,170,2014-01-26 18:25:00
1:32 PM,12.2,8.6,85,29.62,2.5,South,8.1,-,0.00,Snow,Light Snow,170,2014-01-26 18:32:00
1:41 PM,12.2,8.6,85,29.61,3.0,South,9.2,-,0.00,Snow,Light Snow,170,2014-01-26 18:41:00
1:56 PM,14.0,8.1,77,29.72,3.0,South,8.1,-,0.00,Snow,Light Snow,180,2014-01-26 18:56:00
1:59 PM,14.0,8.6,79,29.61,2.5,SSE,5.8,-,0.00,Snow,Light Snow,160,2014-01-26 18:59:00
2:16 PM,14.0,8.6,79,29.59,3.0,Variable,5.8,-,0.00,Snow,Light Snow,0,2014-01-26 19:16:00
2:28 PM,14.0,8.6,79,29.58,4.0,South,8.1,-,0.00,Snow,Light Snow,180,2014-01-26 19:28:00
2:56 PM,15.1,9.1,77,29.70,10.0,Variable,5.8,-,0.00,,Mostly Cloudy,0,2014-01-26 19:56:00
3:56 PM,17.1,10.0,74,29.68,10.0,Variable,5.8,-,N/A,,Overcast,0,2014-01-26 20:56:00
4:56 PM,18.1,11.1,74,29.66,10.0,Variable,5.8,-,N/A,,Overcast,0,2014-01-26 21:56:00
5:12 PM,19.4,10.4,68,29.55,10.0,South,8.1,-,N/A,,Overcast,170,2014-01-26 22:12:00
5:27 PM,19.4,10.4,68,29.55,10.0,Variable,5.8,-,N/A,,Overcast,0,2014-01-26 22:27:00
5:56 PM,20.1,11.1,68,29.66,10.0,Variable,5.8,-,N/A,,Overcast,0,2014-01-26 22:56:00
6:56 PM,21.2,12.2,68,29.56,10.0,South,8.1,17.3,N/A,,Mostly Cloudy,170,2014-01-26 23:56:00
7:56 PM,24.1,14.0,65,29.68,10.0,South,8.1,-,N/A,,Overcast,190,2014-01-27 00:56:00
8:56 PM,26.1,16.2,66,29.68,10.0,Variable,3.5,-,N/A,,Overcast,0,2014-01-27 01:56:00
9:56 PM,27.1,17.1,66,29.65,10.0,SSW,6.9,-,N/A,,Partly Cloudy,200,2014-01-27 02:56:00
10:56 PM,30.0,22.1,72,29.62,10.0,South,6.9,-,N/A,,Clear,180,2014-01-27 03:56:00
11:56 PM,31.1,22.1,69,29.58,10.0,South,3.5,-,N/A,,Scattered Clouds,170,2014-01-27 04:56:00